• în Republica Moldova
  • Lista ţărilor
  • Pe 7 zile
  • Temperatura apei
  • Hartă satelitară
  • Meteo pe hartă
  • Widget-uri
  • user-avatar
    Intrare

    Meteo pe oră la Shusha

    Astăzi, 21 Mai, Luni

    Timp Temperatura Precipitaţii Vânt Presiune Umiditate
    00:00 +15°C° 0 mm 1 m/s 661 mmHg 71%
    01:00 +15°C° 0 mm 1 m/s 660 mmHg 71%
    02:00 +14°C° 0 mm 1 m/s 660 mmHg 71%
    03:00 +14°C° 0 mm 1 m/s 660 mmHg 71%
    04:00 +15°C° 0 mm 1 m/s 660 mmHg 70%
    05:00 +15°C° 0 mm 1 m/s 661 mmHg 68%
    06:00 +16°C° 0 mm 1 m/s 661 mmHg 67%
    07:00 +17°C° 0 mm 2 m/s 661 mmHg 61%
    08:00 +19°C° 0 mm 2 m/s 662 mmHg 54%
    09:00 +20°C° 0 mm 2 m/s 662 mmHg 48%
    10:00 +21°C° 0,2 mm 3 m/s 662 mmHg 46%
    11:00 +22°C° 0,2 mm 3 m/s 662 mmHg 44%
    12:00 +24°C° 0,2 mm 3 m/s 662 mmHg 42%
    13:00 +24°C° 0,3 mm 3 m/s 662 mmHg 42%
    14:00 +24°C° 0,3 mm 2 m/s 662 mmHg 43%
    15:00 +24°C° 0,3 mm 2 m/s 661 mmHg 43%
    16:00 +23°C° 0,5 mm 2 m/s 661 mmHg 47%
    17:00 +21°C° 0,5 mm 2 m/s 661 mmHg 52%
    18:00 +21°C° 0,5 mm 1 m/s 661 mmHg 56%
    19:00 +19°C° 0,1 mm 2 m/s 661 mmHg 58%
    20:00 +18°C° 0,1 mm 2 m/s 661 mmHg 61%
    21:00 +17°C° 0,1 mm 2 m/s 661 mmHg 63%
    22:00 +16°C° 0 mm 2 m/s 661 mmHg 64%
    23:00 +16°C° 0 mm 2 m/s 661 mmHg 64%

    Mâine, 22 Mai, Marţi

    Timp Temperatura Precipitaţii Vânt Presiune Umiditate
    00:00 +16°C° 0 mm 1 m/s 661 mmHg 65%
    01:00 +15°C° 0 mm 1 m/s 661 mmHg 66%
    02:00 +15°C° 0 mm 2 m/s 661 mmHg 67%
    03:00 +15°C° 0 mm 2 m/s 661 mmHg 68%
    04:00 +15°C° 0 mm 1 m/s 661 mmHg 68%
    05:00 +15°C° 0 mm 1 m/s 662 mmHg 68%
    06:00 +16°C° 0 mm 1 m/s 662 mmHg 68%
    07:00 +17°C° 0 mm 2 m/s 663 mmHg 62%
    08:00 +18°C° 0 mm 2 m/s 663 mmHg 57%
    09:00 +20°C° 0 mm 2 m/s 663 mmHg 51%
    10:00 +21°C° 0 mm 2 m/s 664 mmHg 48%
    11:00 +21°C° 0 mm 3 m/s 664 mmHg 45%
    12:00 +22°C° 0 mm 3 m/s 664 mmHg 42%
    13:00 +22°C° 0,1 mm 3 m/s 664 mmHg 41%
    14:00 +24°C° 0,1 mm 3 m/s 664 mmHg 41%
    15:00 +24°C° 0,1 mm 3 m/s 663 mmHg 40%
    16:00 +22°C° 0 mm 3 m/s 663 mmHg 43%
    17:00 +21°C° 0 mm 2 m/s 663 mmHg 46%
    18:00 +21°C° 0 mm 2 m/s 663 mmHg 48%
    19:00 +19°C° 0 mm 2 m/s 663 mmHg 51%
    20:00 +18°C° 0 mm 2 m/s 663 mmHg 53%
    21:00 +16°C° 0 mm 2 m/s 663 mmHg 56%
    22:00 +15°C° 0 mm 2 m/s 663 mmHg 54%
    23:00 +15°C° 0 mm 2 m/s 663 mmHg 52%

    Poimâine, 23 Mai, Miercuri

    Timp Temperatura Precipitaţii Vânt Presiune Umiditate
    00:00 +14°C° 0 mm 2 m/s 662 mmHg 51%
    01:00 +14°C° 0 mm 2 m/s 662 mmHg 48%
    02:00 +14°C° 0 mm 2 m/s 662 mmHg 45%
    03:00 +14°C° 0 mm 2 m/s 662 mmHg 42%
    04:00 +14°C° 0 mm 2 m/s 663 mmHg 43%
    05:00 +15°C° 0 mm 2 m/s 663 mmHg 44%
    06:00 +15°C° 0 mm 2 m/s 663 mmHg 45%
    07:00 +17°C° 0 mm 2 m/s 663 mmHg 41%
    08:00 +19°C° 0 mm 2 m/s 664 mmHg 36%
    09:00 +21°C° 0 mm 2 m/s 664 mmHg 32%
    10:00 +23°C° 0 mm 2 m/s 664 mmHg 31%
    11:00 +24°C° 0 mm 2 m/s 664 mmHg 30%
    12:00 +25°C° 0 mm 3 m/s 664 mmHg 29%
    13:00 +25°C° 0 mm 3 m/s 664 mmHg 29%
    14:00 +25°C° 0 mm 3 m/s 664 mmHg 30%
    15:00 +25°C° 0 mm 3 m/s 663 mmHg 30%
    16:00 +24°C° 0 mm 3 m/s 663 mmHg 34%
    17:00 +23°C° 0 mm 2 m/s 662 mmHg 37%
    18:00 +21°C° 0 mm 2 m/s 662 mmHg 41%
    19:00 +19°C° 0 mm 2 m/s 662 mmHg 43%
    20:00 +18°C° 0 mm 2 m/s 662 mmHg 44%
    21:00 +16°C° 0 mm 3 m/s 661 mmHg 46%
    22:00 +14°C° 0 mm 3 m/s 661 mmHg 46%
    23:00 +14°C° 0 mm 3 m/s 661 mmHg 46%

    24 Mai, Joi

    Timp Temperatura Precipitaţii Vânt Presiune Umiditate
    00:00 +13°C° 0 mm 3 m/s 661 mmHg 46%
    01:00 +13°C° 0 mm 3 m/s 660 mmHg 45%
    02:00 +12°C° 0 mm 3 m/s 660 mmHg 43%
    03:00 +13°C° 0 mm 2 m/s 659 mmHg 41%
    04:00 +14°C° 0 mm 2 m/s 660 mmHg 41%
    05:00 +14°C° 0 mm 2 m/s 660 mmHg 42%
    06:00 +15°C° 0 mm 2 m/s 660 mmHg 42%
    07:00 +17°C° 0 mm 2 m/s 660 mmHg 37%
    08:00 +19°C° 0 mm 2 m/s 661 mmHg 32%
    09:00 +22°C° 0 mm 1 m/s 661 mmHg 27%
    10:00 +21°C° 0 mm 2 m/s 661 mmHg 26%
    11:00 +23°C° 0 mm 2 m/s 661 mmHg 25%
    12:00 +24°C° 0 mm 3 m/s 661 mmHg 25%
    13:00 +24°C° 0 mm 3 m/s 660 mmHg 26%
    14:00 +24°C° 0 mm 3 m/s 660 mmHg 27%
    15:00 +25°C° 0 mm 3 m/s 660 mmHg 28%
    16:00 +24°C° 0 mm 3 m/s 659 mmHg 32%
    17:00 +22°C° 0 mm 3 m/s 659 mmHg 36%
    18:00 +21°C° 0 mm 3 m/s 659 mmHg 41%
    19:00 +19°C° 0 mm 2 m/s 658 mmHg 44%
    20:00 +17°C° 0 mm 2 m/s 658 mmHg 48%
    21:00 +14°C° 0 mm 2 m/s 658 mmHg 51%
    22:00 +14°C° 0 mm 2 m/s 658 mmHg 50%
    23:00 +13°C° 0 mm 3 m/s 657 mmHg 49%

    25 Mai, Vineri

    Timp Temperatura Precipitaţii Vânt Presiune Umiditate
    00:00 +12°C° 0 mm 3 m/s 657 mmHg 47%
    01:00 +12°C° 0 mm 3 m/s 657 mmHg 46%
    02:00 +12°C° 0 mm 3 m/s 656 mmHg 44%
    03:00 +11°C° 0 mm 3 m/s 656 mmHg 43%
    04:00 +13°C° 0 mm 2 m/s 656 mmHg 43%
    05:00 +14°C° 0 mm 2 m/s 657 mmHg 43%
    06:00 +15°C° 0 mm 2 m/s 657 mmHg 43%
    07:00 +17°C° 0 mm 2 m/s 658 mmHg 38%
    08:00 +19°C° 0 mm 2 m/s 658 mmHg 34%
    09:00 +21°C° 0 mm 2 m/s 658 mmHg 29%
    10:00 +23°C° 0 mm 2 m/s 658 mmHg 28%
    11:00 +24°C° 0 mm 2 m/s 658 mmHg 27%
    12:00 +25°C° 0 mm 3 m/s 658 mmHg 25%
    13:00 +25°C° 0 mm 3 m/s 658 mmHg 25%
    14:00 +25°C° 0 mm 3 m/s 658 mmHg 25%
    15:00 +25°C° 0 mm 3 m/s 657 mmHg 25%
    16:00 +25°C° 0 mm 3 m/s 657 mmHg 29%
    17:00 +24°C° 0 mm 2 m/s 657 mmHg 33%
    18:00 +23°C° 0 mm 2 m/s 657 mmHg 36%
    19:00 +20°C° 0 mm 2 m/s 657 mmHg 39%
    20:00 +18°C° 0 mm 2 m/s 657 mmHg 41%
    21:00 +16°C° 0 mm 2 m/s 657 mmHg 44%
    22:00 +15°C° 0 mm 2 m/s 657 mmHg 44%
    23:00 +15°C° 0 mm 2 m/s 657 mmHg 43%

    26 Mai, Sâmbătă

    Timp Temperatura Precipitaţii Vânt Presiune Umiditate
    00:00 +14°C° 0 mm 2 m/s 657 mmHg 43%
    01:00 +14°C° 0 mm 2 m/s 657 mmHg 44%
    02:00 +14°C° 0 mm 2 m/s 657 mmHg 44%
    03:00 +13°C° 0 mm 2 m/s 657 mmHg 44%
    04:00 +14°C° 0 mm 2 m/s 657 mmHg 45%
    05:00 +15°C° 0 mm 2 m/s 658 mmHg 46%
    06:00 +16°C° 0 mm 2 m/s 658 mmHg 46%
    07:00 +18°C° 0 mm 2 m/s 659 mmHg 42%
    08:00 +20°C° 0 mm 2 m/s 660 mmHg 37%
    09:00 +21°C° 0 mm 2 m/s 660 mmHg 33%
    10:00 +23°C° 0 mm 2 m/s 660 mmHg 32%
    11:00 +24°C° 0 mm 3 m/s 660 mmHg 31%
    12:00 +25°C° 0 mm 3 m/s 661 mmHg 29%
    13:00 +25°C° 0 mm 3 m/s 661 mmHg 30%
    14:00 +25°C° 0 mm 3 m/s 660 mmHg 31%
    15:00 +25°C° 0 mm 4 m/s 660 mmHg 31%
    16:00 +23°C° 0 mm 4 m/s 660 mmHg 35%
    17:00 +22°C° 0 mm 4 m/s 660 mmHg 39%
    18:00 +21°C° 0 mm 4 m/s 660 mmHg 42%
    19:00 +19°C° 0 mm 3 m/s 661 mmHg 46%
    20:00 +17°C° 0 mm 3 m/s 661 mmHg 50%
    21:00 +15°C° 0 mm 2 m/s 661 mmHg 55%
    22:00 +15°C° 0 mm 2 m/s 661 mmHg 55%
    23:00 +15°C° 0 mm 2 m/s 661 mmHg 56%
    Arată mai mult